Regional Weather Roundup
Issued by NWS Charleston, WV

Home | Current Version | Previous Version | Text Only | Print | Product List | Glossary Off
Versions: 1 2 3 4 5 6 7 8 9 10 11 12 13 14 15 16 17 18 19 20 21 22 23 24 25 26 27

000
ASUS41 KRLX 191610
RWRRLX
West Virginia Regional Weather Roundup
National Weather Service Charleston WV
1200 PM EDT SAT APR 19 2014

Note: "fair" indicates few or no clouds below 12,000 feet with no
significant weather and/or obstructions to visibility.

WVZ003-191700-
Northern Panhandle of West Virginia

CITY           SKY/WX    TMP DP  RH WIND       PRES   REMARKS
WHEELING       SUNNY     57  35  43 NE12      30.33F
$$

WVZ009-191700-
Northwest West Virginia

CITY           SKY/WX    TMP DP  RH WIND       PRES   REMARKS
PARKERSBURG    MOSUNNY   64  37  36 NE13G21   30.32F
$$

WVZ006-191700-
Western West Virginia

CITY           SKY/WX    TMP DP  RH WIND       PRES   REMARKS
HUNTINGTON     SUNNY     67  40  37 N10G18    30.26F
$$

WVZ015-191700-
West Central West Virginia

CITY           SKY/WX    TMP DP  RH WIND       PRES   REMARKS
CHARLESTON     PTSUNNY   66  38  35 NE12G22   30.25F
$$

WVZ031-191700-
North Central West Virginia

CITY           SKY/WX    TMP DP  RH WIND       PRES   REMARKS
CLARKSBURG     CLOUDY    62  36  37 N16       30.29F
MORGANTOWN     PTSUNNY   60  36  40 N18       30.32F
$$

WVZ035-042-045-191700-
South Central West Virginia

CITY           SKY/WX    TMP DP  RH WIND       PRES   REMARKS
BECKLEY        CLOUDY    59  33  37 NE8       30.23F
BLUEFIELD      CLOUDY    59  33  37 NE9       30.24R
LEWISBURG      CLOUDY    60  32  34 N8        30.22S
$$

WVZ047-191700-
Northern Mountains of West Virginia

CITY           SKY/WX    TMP DP  RH WIND       PRES   REMARKS
ELKINS         PTSUNNY   63  34  33 E6        30.26F
$$

WVZ052-191700-
Eastern Panhandle of West Virginia

CITY           SKY/WX    TMP DP  RH WIND       PRES   REMARKS
MARTINSBURG    MOSUNNY   64  35  34 N10       30.29F
PETERSBURG     MOSUNNY   64  43  45 CALM      30.30F
$$



USA.gov is the U.S. government's official web portal to all federal, state and local government web resources and services.